Weather History for Klawock, AK

Change the Weather History Date:

Saturday, January 19, 2013

  Actual Average Record
Temperature  
Mean Temperature 38 °F -  
Max Temperature 41 °F 37 °F 55 °F (2009)
Min Temperature 34 °F 29 °F 8 °F (2012)
Degree Days  
Heating Degree Days 28    
Moisture  
Dew Point 36 °F    
Average Humidity 90    
Maximum Humidity 93    
Minimum Humidity 86    
Precipitation  
Precipitation 0.00 in - - ()
Sea Level Pressure  
Sea Level Pressure 30.25 in    
Wind  
Wind Speed 4 mph (NE)    
Max Wind Speed 10 mph    
Max Gust Speed -    
Visibility 10 miles    
Events      
Averages and records for this station are not official NWS values.
T = Trace of Precipitation, MM = Missing Value Source: NWS Daily Summary

Daily Weather History Graph

Daily Weather History Graph

Search for Another Location

Airport:

Trip Planner

Search our weather history database for the weather conditions in past years. The results will help you decide how hot, cold, wet, or windy it might be!

Date:

Astronomy

Jan. 19, 2013 Rise Set
Actual Time 8:05 AM AKST 4:01 PM AKST
Civil Twilight 7:22 AM AKST 4:44 PM AKST
Nautical Twilight 6:36 AM AKST 5:30 PM AKST
Astronomical Twilight 5:52 AM AKST 6:14 PM AKST
Moon 10:43 AM AKST (1/19) 1:31 AM AKST (1/19)
Length of Visible Light 9h 21m
Length of Day
7h 55m
First Quarter, 58% of the Moon is Illuminated
Jan 19
First Quarter
Jan 26
Full
Feb 3
Last Quarter
Feb 9
New
Feb 17
First Quarter

Hourly Weather History & Observations

Time (AKST) Temp. Windchill Dew Point Humidity Pressure Visibility Wind Dir Wind Speed Gust Speed Precip Events Conditions
12:53 AM 34.0 °F 31.0 °F 32.0 °F 92% 30.25 in 10.0 mi NNE 3.5 mph - N/A   Mostly Cloudy
1:53 AM 35.1 °F - 33.1 °F 92% 30.27 in 10.0 mi Calm Calm - N/A   Overcast
3:53 AM 34.0 °F 29.8 °F 32.0 °F 92% 30.25 in 10.0 mi NE 4.6 mph - N/A   Clear
4:53 AM 35.1 °F - 32.0 °F 89% 30.25 in 10.0 mi Calm Calm - N/A   Clear
5:53 AM 35.1 °F 31.0 °F 32.0 °F 89% 30.24 in 10.0 mi NE 4.6 mph - N/A   Mostly Cloudy
6:53 AM 36.0 °F 31.1 °F 33.1 °F 89% 30.25 in 10.0 mi NNE 5.8 mph - N/A   Overcast
8:53 AM 37.0 °F 33.3 °F 34.0 °F 89% 30.24 in 10.0 mi ENE 4.6 mph - N/A   Overcast
9:53 AM 37.9 °F 33.5 °F 35.1 °F 89% 30.25 in 10.0 mi NE 5.8 mph - N/A   Overcast
10:53 AM 39.0 °F 32.8 °F 35.1 °F 86% 30.25 in 10.0 mi North 9.2 mph - N/A   Mostly Cloudy
11:53 AM 41.0 °F 34.7 °F 37.0 °F 86% 30.25 in 10.0 mi NNE 10.4 mph - N/A   Overcast
12:53 PM 39.9 °F 34.5 °F 37.0 °F 89% 30.26 in 10.0 mi NE 8.1 mph - N/A   Overcast
1:53 PM 41.0 °F 35.8 °F 37.0 °F 86% 30.25 in 10.0 mi NNE 8.1 mph - N/A   Overcast
2:53 PM 41.0 °F 35.2 °F 37.9 °F 89% 30.25 in 10.0 mi NNE 9.2 mph - N/A   Overcast
3:46 PM 39.2 °F 37.0 °F 37.4 °F 93% 30.24 in 10.0 mi NE 3.5 mph - N/A   Mostly Cloudy
3:53 PM 39.9 °F 36.7 °F 37.9 °F 93% 30.25 in 10.0 mi NE 4.6 mph - N/A   Mostly Cloudy
4:17 PM 39.2 °F - 37.4 °F 93% 30.23 in 10.0 mi Calm Calm - N/A   Mostly Cloudy
4:26 PM 39.2 °F 37.0 °F 37.4 °F 93% 30.23 in 10.0 mi Variable 3.5 mph - N/A   Scattered Clouds
4:53 PM 39.9 °F 35.8 °F 37.0 °F 89% 30.23 in 10.0 mi NNE 5.8 mph - N/A   Clear
5:53 PM 39.9 °F - 37.9 °F 93% 30.24 in 10.0 mi Calm Calm - N/A   Clear
6:53 PM 39.9 °F 37.8 °F 37.9 °F 93% 30.25 in 10.0 mi NNE 3.5 mph - N/A   Mostly Cloudy
7:53 PM 41.0 °F - 37.9 °F 89% 30.24 in 10.0 mi Calm Calm - N/A   Overcast
8:53 PM 41.0 °F - 37.9 °F 89% 30.24 in 10.0 mi Calm Calm - N/A   Overcast
9:53 PM 41.0 °F 38.0 °F 37.9 °F 89% 30.24 in 10.0 mi NE 4.6 mph - N/A   Overcast
10:53 PM 41.0 °F - 37.9 °F 89% 30.24 in 10.0 mi Calm Calm - N/A   Overcast
11:53 PM 41.0 °F 37.1 °F 37.9 °F 89% 30.26 in 10.0 mi NNE 5.8 mph - N/A   Overcast